Tracking 19644 objects as of 24-Apr-2019
HD Live streaming from Space Station
objects crossing your sky now

THORAD DELTA 1 DEB

Track THORAD DELTA 1 DEB now!
10-day predictions


NORAD ID: 42598
Int'l Code: 1974-089FP
Perigee: 1,368.2 km
Apogee: 1,652.2 km
Inclination: 102.8 °
Period: 116.1 minutes
Semi major axis: 7881 km
RCS: Unknown
Launch date: November 15, 1974
Source: United States (US)
Launch site: AIR FORCE WESTERN TEST RANGE (AFWTR)

Note: This is SATELLITE DEBRIS
aabbcc
Your satellite tracking list
Your tracking list is empty




NASA's NSSDC Master Catalog

Two Line Element Set (TLE):
1 42598U 74089FP  19113.83222434  .00000064  00000-0  79598-3 0  9990
2 42598 102.7956 331.9566 0180165 252.6969 173.5173 12.40833445865755
Source of the keplerian elements: AFSPC